This is the latest recevied weather packets stored in our database for station/object N4RCT. If no packets are shown the sender has not sent any weather packets the latest 10 day(s).
| Time | Temp. | Humidity | Pressure | Rain* | Wind** | Luminosity | Snow |
|---|---|---|---|---|---|---|---|
| 1777424313 | 17.78° C | 98% | 1018.4 hPa | 0 mm | - | 0 W/m² | - |
| 1777424008 | 17.78° C | 98% | 1018.8 hPa | 0 mm | - | 0 W/m² | - |
| 1777423706 | 17.78° C | 98% | 1018.9 hPa | 0 mm | - | 0 W/m² | - |
| 1777423402 | 17.78° C | 98% | 1018.9 hPa | 0 mm | - | 0 W/m² | - |
| 1777423101 | 17.78° C | 97% | 1018.9 hPa | 0 mm | - | 0 W/m² | - |
| 1777422797 | 17.78° C | 97% | 1018.5 hPa | 0 mm | - | 0 W/m² | - |
| 1777422493 | 17.78° C | 97% | 1018.4 hPa | 0 mm | - | 0 W/m² | - |
| 1777422189 | 17.78° C | 96% | 1017.8 hPa | 0 mm | - | 0 W/m² | - |
| 1777421888 | 18.33° C | 96% | 1017.4 hPa | 0 mm | - | 0 W/m² | - |
| 1777421584 | 18.33° C | 95% | 1017.4 hPa | 0 mm | - | 0 W/m² | - |
| 1777421279 | 18.33° C | 95% | 1017 hPa | 0 mm | - | 0 W/m² | - |
| 1777420976 | 18.33° C | 94% | 1016.9 hPa | 0 mm | - | 1 W/m² | - |
| 1777420672 | 18.33° C | 94% | 1016.7 hPa | 0 mm | - | 3 W/m² | - |
| 1777420369 | 18.33° C | 94% | 1016.7 hPa | 0 mm | - | 3 W/m² | - |
| 1777420064 | 18.33° C | 94% | 1016.6 hPa | 0 mm | - | 7 W/m² | - |
| 1777419762 | 18.33° C | 94% | 1016.5 hPa | 0 mm | - | 3 W/m² | - |
| 1777419459 | 18.33° C | 94% | 1016.5 hPa | 0 mm | - | 9 W/m² | - |
| 1777419157 | 18.89° C | 94% | 1016.6 hPa | 0 mm | - | 13 W/m² | - |
| 1777418852 | 18.89° C | 93% | 1016.6 hPa | 0 mm | - | 19 W/m² | - |
| 1777418549 | 18.89° C | 92% | 1016.3 hPa | 0 mm | - | 23 W/m² | - |
| 1777418246 | 19.44° C | 92% | 1016.4 hPa | 0 mm | - | 30 W/m² | - |
| 1777417942 | 19.44° C | 91% | 1016.2 hPa | 0 mm | - | 43 W/m² | - |
| 1777417638 | 19.44° C | 91% | 1016 hPa | 0 mm | - | 49 W/m² | - |
| 1777417333 | 19.44° C | 90% | 1016.2 hPa | 0 mm | - | 55 W/m² | - |
| 1777417030 | 19.44° C | 91% | 1016.4 hPa | 0 mm | - | 61 W/m² | - |
* Rain latest hour (hover to see other rain measurements)
** Current wind speed in m/s (hover to see current wind gust speed)